Hourly Weather Roundup
Issued by NWS Central Illinois

Home | Current Version | Previous Version | Text Only | Print | Product List | Glossary On
Versions: 1 2 3 4 5 6 7 8 9 10 11 12 13 14 15 16 17 18 19 20 21 22 23 24 25 26 27 28 29 30 31 32 33 34 35 36 37 38 39 40 41 42 43 44 45 46 47 48 49 50
000
NZUS43 KILX 030210
HWRILX

AREA WEATHER ROUNDUP
NATIONAL WEATHER SERVICE, LINCOLN IL
900 PM CDT TUE SEP 02 2014


CITY           SKY/WX    TMP DP  RH WIND       PRES   REMARKS
BLOOMINGTON    CLEAR     70  63  78 CALM      29.98R
CHAMPAIGN      PTCLDY    69  67  93 S6        29.97R
DECATUR        PTCLDY    73  68  84 S3        29.97R
FLORA          CLEAR     68  67  95 CALM      30.00R
GALESBURG      CLEAR     67  62  83 W5        29.96R
JACKSONVILLE   CLEAR     71  67  87 SW3       29.98R
LACON          PTCLDY    67  64  90 CALM      29.94R
LAWRENCEVILLE  CLEAR     70  69  97 CALM      29.98R
LITCHFIELD     CLEAR     67  66  97 MISG      29.99R
$$


CITY           SKY/WX    TMP DP  RH WIND       PRES   REMARKS
LINCOLN        CLEAR     72  65  81 CALM      29.93R
MACOMB         CLEAR     66  63  90 NW3       29.98R
MATTOON        PTCLDY    71  68  90 S6        29.98R
MT CARMEL AP   CLEAR     72  70  94 CALM      29.99R FOG
OLNEY-NOBLE AP CLEAR     66  66 100 CALM      29.99R
PARIS          PTCLDY    68  67  98 S3        29.99R
PEORIA         CLEAR     72  65  78 CALM      29.95R
PONTIAC        CLEAR     68  66  94 CALM      29.94R
RANTOUL        PTCLDY    69  64  85 CALM      29.97R
ROBINSON       CLEAR     67  67  98 CALM      29.99R
SPRINGFIELD    CLEAR     71  67  87 SW5       29.96R
TAYLORVILLE    MOCLDY    70  68  94 S3        29.98R
$$

...REGIONAL REPORTS...


CITY           SKY/WX    TMP DP  RH WIND       PRES   REMARKS
CHICAGO O`HARE MOCLDY    73  58  59 NW5       29.92R
KANKAKEE       CLEAR     64  63  94 S3        29.95R
MOLINE         CLEAR     67  62  84 CALM      29.94R
MOUNT VERNON   CLEAR     70  64  83 CALM      30.00R
PITTSFIELD     CLEAR     72  67  84 CALM      29.99R
QUINCY         PTCLDY    71  66  84 SW3       29.97R
ROCKFORD       CLEAR     69  60  73 CALM      29.95R
$$


CITY           SKY/WX    TMP DP  RH WIND       PRES   REMARKS
BURLINGTON     CLEAR     69  62  78 NW5       29.96R
CEDAR RAPIDS   CLEAR     62  61  96 S5        29.95R
DES MOINES     CLEAR     73  60  63 CALM      29.95R
KIRKSVILLE     CLEAR     67  65  93 CALM      29.98R
OTTUMWA        CLEAR     64  62  93 CALM      29.96R
ST LOUIS       PTCLDY    76  68  76 CALM      29.99R
$$


CITY           SKY/WX    TMP DP  RH WIND       PRES   REMARKS
TERRE HAUTE    CLEAR     68  66  93 CALM      29.99R
EVANSVILLE     CLEAR     75  70  84 CALM      29.98R
INDIANAPOLIS   CLEAR     70  65  84 SW5       29.97R
LAFAYETTE      PTCLDY    69  68  96 CALM      29.95R
MADISON        CLEAR     66  58  75 CALM      29.92R
MILWAUKEE      PTCLDY    69  57  65 CALM      29.92R
$$




USA.gov is the U.S. government's official web portal to all federal, state and local government web resources and services.